Balikesir, Turkey

12:59 PM +03 on June 28, 2017 (GMT +0300)
Balikesir Air Base

Weather History for LTBF - February, 2014

Change the Weather History Date:

Wednesday, February 19, 2014

  Actual Average Record
Temperature  
Mean Temperature 52 °F -  
Max Temperature 71 °F 54 °F 71 °F (2014)
Min Temperature 32 °F 38 °F 1 °F (2008)
Degree Days  
Heating Degree Days 14    
Growing Degree Days 2 (Base 50)    
Moisture  
Dew Point 44 °F    
Average Humidity 79    
Maximum Humidity 100    
Minimum Humidity 30    
Precipitation  
Precipitation 0.00 in 0.08 in - ()
Sea Level Pressure  
Sea Level Pressure 30.26 in    
Wind  
Wind Speed 1 mph ()    
Max Wind Speed 12 mph    
Max Gust Speed -    
Visibility 3.2 miles    
Events Fog    
Averages and records for this station are not official NWS values.
T = Trace of Precipitation, MM = Missing Value Source: Averaged Metar Reports

Daily Weather History Graph

Daily Weather History Graph

Search for Another Location

Airport or City:

Trip Planner

Search our weather history database for the weather conditions in past years. The results will help you decide how hot, cold, wet, or windy it might be!

Date:

Astronomy

Feb. 19, 2014 Rise Set
Actual Time 6:55 AM EET 5:49 PM EET
Civil Twilight 6:28 AM EET 6:16 PM EET
Nautical Twilight 5:57 AM EET 6:47 PM EET
Astronomical Twilight 5:25 AM EET 7:19 PM EET
Moon 10:21 PM EET (2/19) 8:51 AM EET (2/19)
Length of Visible Light 11h 48m
Length of Day
10h 53m
Waning Gibbous, 82% of the Moon is Illuminated
Feb 19
Waning Gibbous
Feb 22
Last Quarter
Mar 1
New
Mar 8
First Quarter
Mar 16
Full

Hourly Weather History & Observations

Time (EET) Temp. Dew Point Humidity Pressure Visibility Wind Dir Wind Speed Gust Speed Precip Events Conditions
12:50 AM 41.0 °F 39.2 °F 93% 30.30 in - Calm Calm - N/A   Clear
1:50 AM 41.0 °F 39.2 °F 93% 30.30 in - Calm Calm - N/A   Clear
2:00 AM 41 °F 39 °F 92% 30.33 in 6 mi Calm Calm - -  
2:50 AM 37.4 °F 37.4 °F 100% 30.30 in 3.7 mi Calm Calm - N/A   Unknown
3:50 AM 37.4 °F 37.4 °F 100% 30.30 in 2.5 mi Calm Calm - N/A   Mist
4:50 AM 37.4 °F 37.4 °F 100% 30.30 in 1.2 mi Calm Calm - N/A   Mist
5:00 AM 38 °F 38 °F 98% 30.32 in 1 mi Calm Calm - -   Mist
5:50 AM 35.6 °F 35.6 °F 100% 30.30 in 1.0 mi Calm Calm - N/A   Mist
6:50 AM 32.0 °F 32.0 °F 100% 30.30 in 1.0 mi Calm Calm - N/A   Mist
7:50 AM 35.6 °F 35.6 °F 100% 30.33 in 0.6 mi Calm Calm - N/A Fog Patches of Fog
8:00 AM 35 °F 35 °F 98% 30.35 in 1 mi Calm Calm - - Fog Patches of Fog
8:50 AM 41.0 °F 41.0 °F 100% 30.33 in 0.6 mi ENE 1.2 mph - N/A Fog Patches of Fog
9:50 AM 46.4 °F 44.6 °F 93% 30.33 in - Variable 1.2 mph - N/A   Mist
10:22 AM 51.8 °F 46.4 °F 82% 30.33 in 3.7 mi Variable 1.2 mph - N/A   Unknown
10:50 AM 53.6 °F 46.4 °F 77% 30.30 in - NNE 3.5 mph - N/A   Clear
11:00 AM 53 °F 46 °F 71% 30.33 in 6 mi NNE 3.5 mph - -  
11:50 AM 59.0 °F 46.4 °F 63% 30.30 in - Calm Calm - N/A   Clear
12:50 PM 64.4 °F 50.0 °F 59% 30.27 in - Calm Calm - N/A   Clear
1:50 PM 66.2 °F 51.8 °F 60% 30.21 in - Variable 2.3 mph - N/A   Clear
2:00 PM 66 °F 51 °F 49% 30.24 in 6 mi East 2.3 mph - -   Partly Cloudy
2:50 PM 69.8 °F 50.0 °F 49% 30.18 in - Calm Calm - N/A   Clear
3:50 PM 69.8 °F 46.4 °F 43% 30.18 in - WSW 11.5 mph - N/A   Clear
4:50 PM 68.0 °F 44.6 °F 43% 30.18 in - SW 11.5 mph - N/A   Clear
5:00 PM 68 °F 44 °F 30% 30.19 in 6 mi SW 11.5 mph - -  
5:50 PM 64.4 °F 48.2 °F 56% 30.18 in - SW 5.8 mph - N/A   Clear
6:50 PM 57.2 °F 48.2 °F 72% 30.18 in - South 4.6 mph - N/A   Clear
7:50 PM 53.6 °F 48.2 °F 82% 30.18 in - WSW 3.5 mph - N/A   Clear
8:00 PM 54 °F 48 °F 75% 30.21 in 6 mi WSW 3.5 mph - -  
8:50 PM 55.4 °F 48.2 °F 77% 30.18 in - SW 5.8 mph - N/A   Clear
9:50 PM 50.0 °F 46.4 °F 87% 30.18 in - WSW 6.9 mph - N/A   Clear
10:50 PM 48.2 °F 46.4 °F 93% 30.18 in 4.3 mi Calm Calm - N/A   Unknown
11:00 PM 49 °F 46 °F 83% 30.21 in 4 mi Calm Calm - -   Mist
11:50 PM 44.6 °F 42.8 °F 93% 30.18 in 2.5 mi Variable 1.2 mph - N/A   Mist